User: anonymous   Login
Location: Phoenix
(33.4480°N, 112.0730°W)
Time: 01:17:45
(UTC-07:00)
Language:

Hubble Space Telescope - Orbit

View from above orbital plane
View from above orbital plane
View from above satellite
View from above satellite

Ground track
Ground track

The orbit data is extracted from the following two-line orbital elements,

1 20580U 90037B   16122.90173611  .00001111  00000-0  58540-4 0  9994
2 20580  28.4693 204.3686 0003041  72.3064 274.2733 15.08329129228110
Epoch (UTC): 01 May 2016 21:38:30
Eccentricity: 0.0003041
inclination: 28.4693°
perigee height: 539 km
apogee height: 543 km
right ascension of ascending node: 204.3686°
argument of perigee: 72.3064°
revolutions per day: 15.08329129
mean anomaly at epoch: 274.2733°
orbit number at epoch: 22811

The dashed part of the orbit path shows where the satellite is in the earth's shadow,  

DLR